TimeEDT,TemperatureF,Dew PointF,Humidity,Sea Level PressureIn,VisibilityMPH,Wind Direction,Wind SpeedMPH,Gust SpeedMPH,PrecipitationIn,Events,Conditions,WindDirDegrees,DateUTC
12:53 AM,69.1,59.0,70,30.22,10.0,Calm,Calm,-,N/A,,Overcast,0,2013-08-18 04:53:00
1:53 AM,70.0,59.0,68,30.21,10.0,Calm,Calm,-,N/A,,Mostly Cloudy,0,2013-08-18 05:53:00
2:53 AM,68.0,59.0,73,30.20,9.0,Calm,Calm,-,0.00,Rain,Light Rain,0,2013-08-18 06:53:00
3:53 AM,68.0,59.0,73,30.20,6.0,Calm,Calm,-,0.02,Rain,Light Rain,0,2013-08-18 07:53:00
4:53 AM,68.0,60.1,76,30.19,8.0,Calm,Calm,-,0.01,Rain,Light Rain,0,2013-08-18 08:53:00
5:53 AM,66.9,57.9,73,30.21,9.0,Calm,Calm,-,0.01,Rain,Light Rain,0,2013-08-18 09:53:00
6:53 AM,64.9,57.0,75,30.22,7.0,Calm,Calm,-,0.02,Rain,Light Rain,0,2013-08-18 10:53:00
7:40 AM,66.2,57.2,73,30.25,5.0,Calm,Calm,-,0.01,,Haze,0,2013-08-18 11:40:00
7:53 AM,66.0,59.0,78,30.22,2.5,Calm,Calm,-,0.01,,Haze,0,2013-08-18 11:53:00
8:53 AM,68.0,59.0,73,30.24,10.0,Calm,Calm,-,0.00,,Overcast,0,2013-08-18 12:53:00
10:53 AM,70.0,59.0,68,30.26,9.0,Calm,Calm,-,0.03,Rain,Light Rain,0,2013-08-18 14:53:00
11:53 AM,69.1,57.9,68,30.24,9.0,Calm,Calm,-,0.01,Rain,Light Rain,0,2013-08-18 15:53:00
12:53 PM,69.1,57.9,68,30.22,9.0,Calm,Calm,-,0.02,Rain,Light Rain,0,2013-08-18 16:53:00
1:53 PM,69.1,57.9,68,30.21,10.0,Variable,3.5,-,0.03,Rain,Light Rain,0,2013-08-18 17:53:00
2:53 PM,70.0,57.0,63,30.22,10.0,Calm,Calm,-,0.02,Rain,Light Rain,0,2013-08-18 18:53:00
3:53 PM,71.1,55.0,57,30.19,10.0,Calm,Calm,-,0.00,,Clear,0,2013-08-18 19:53:00
4:53 PM,72.0,55.9,57,30.18,10.0,Calm,Calm,-,0.00,,Partly Cloudy,0,2013-08-18 20:53:00
5:53 PM,73.0,55.9,55,30.17,10.0,Calm,Calm,-,N/A,,Mostly Cloudy,0,2013-08-18 21:53:00
6:53 PM,72.0,59.0,64,30.17,10.0,Calm,Calm,-,N/A,,Overcast,0,2013-08-18 22:53:00
7:53 PM,70.0,60.1,71,30.17,10.0,Calm,Calm,-,N/A,,Overcast,0,2013-08-18 23:53:00
8:53 PM,66.9,59.0,76,30.17,9.0,Calm,Calm,-,N/A,,Partly Cloudy,0,2013-08-19 00:53:00
10:53 PM,64.9,57.0,75,30.18,7.0,Calm,Calm,-,N/A,,Clear,0,2013-08-19 02:53:00
11:53 PM,64.9,57.0,75,30.17,7.0,Calm,Calm,-,N/A,,Clear,0,2013-08-19 03:53:00